Вернуться в каталог

DELTA 1 DEB

АктивенSSO
NORAD 42079·DEBRIS·🇺🇸 United States

Запущен Dec 15, 1968 с Vandenberg Space Force Base

Loading…

Ближайшие Пролёты (ближайшие 24 часа)

TLE

УстаревающийSource: Space-Track

Эпоха: Sep 8, 2026, 20:27 UTC

1 42079U 68114F   26251.85244259 -.00000053  00000-0 -59128-4 0  9996
2 42079 102.0340 218.8950 0315892 288.2127  96.9466 12.26265472572691

Отслеживайте DELTA 1 DEB в реальном времени с AllMySat

Download on the App Store